Flag for Morocco Weather past 2 weeks in Rabat, Morocco

Now
45 °F

Quite cool.


Feels Like: 45 °F
Forecast: 47 / 61 °F
Wind: 2 mph from North

Location: Rabat-Sale

Current Time: Jan 29, 2015 at 5:13:26 AM

Latest Report: Jan 29, 2015 at 4:30 AM


Visibility: 2 mi

Pressure: 30.21 "Hg

Humidity: 93%

Dew point: 43 °F

Location of RabatLocation

Historic Weather in Rabat — Graph

°F

Rabat temperature yesterday

Maximum temperature yesterday: 59 °F (at 12:00 PM)
Minimum temperature yesterday: 43 °F (at 11:00 PM)
Average temperature yesterday: 52 °F

Past Weeks' High & Low Weather Summary

 TemperatureHumidityPressure
High64 °F (Jan 14, 10:30 AM)100% (Jan 14, 4:00 AM)30.39 "Hg (Jan 14, 4:00 AM)
Low37 °F (Jan 25, 5:00 AM)48% (Jan 17, 2:30 PM)29.80 "Hg (Jan 19, 3:30 AM)
Average53 °F81%30.20 "Hg
* Reported Jan 14 4:00 AM — Jan 29 4:00 AM, Rabat, Weather by CustomWeather, © 2014

Note: Actual official high and low records may vary slightly from our data, if they occured in-between our weather recording intervals... More about our weather records

Advertising

Rabat weather history for previous 24 hours

 ConditionsComfort  
Time TempWeatherWind HumidityBarometerVisibility
4:00 AM
Jan 29
46 °FFog.3 mph93%30.21 "Hg2 mi
3:30 AM46 °FFog.3 mph93%30.24 "Hg2 mi
3:00 AM45 °FFog.No wind93%30.24 "Hg1 mi
2:30 AM46 °FFog.5 mph93%30.21 "Hg1 mi
2:00 AM48 °FFog.3 mph94%30.24 "Hg1 mi
1:30 AM46 °FFog.2 mph100%30.24 "Hg1 mi
1:00 AM46 °FFog.2 mph100%30.27 "Hg1 mi
12:30 AM48 °FFog.3 mph94%30.27 "Hg1 mi
11:00 PM
Jan 28
43 °FFog.No wind93%30.27 "Hg1 mi
10:30 PM46 °FFog.2 mph93%30.27 "Hg1 mi
10:00 PM45 °FFog.3 mph93%30.30 "Hg2 mi
9:30 PM45 °FFog.No wind93%30.30 "Hg2 mi
9:00 PM45 °FFog.No wind93%30.30 "Hg2 mi
8:30 PM46 °FFog.No wind87%30.30 "Hg2 mi
8:00 PM46 °FFog.No wind93%30.30 "Hg2 mi
7:30 PM48 °FFog.No wind87%30.30 "Hg1 mi
7:00 PM50 °FFog.No wind94%30.27 "Hg2 mi
6:30 PM52 °FPassing clouds.1 mph88%30.27 "Hg2 mi
6:00 PM54 °FPassing clouds.No wind88%30.27 "Hg3 mi
5:30 PM59 °FPassing clouds.No wind77%30.27 "Hg4 mi
5:00 PM57 °FPassing clouds.3 mph82%30.27 "Hg3 mi
4:30 PM59 °FScattered clouds.6 mph77%30.27 "Hg4 mi
4:00 PM59 °FScattered clouds.5 mph72%30.27 "Hg3 mi
3:30 PM59 °FScattered clouds.6 mph77%30.27 "Hg3 mi
3:00 PM59 °FScattered clouds.6 mph72%30.27 "Hg3 mi
2:30 PM59 °FScattered clouds.7 mph77%30.27 "Hg3 mi
2:00 PM59 °FScattered clouds.7 mph77%30.30 "Hg3 mi
1:30 PM59 °FScattered clouds.6 mph77%30.30 "Hg3 mi
1:00 PM57 °FScattered clouds.5 mph77%30.30 "Hg3 mi
12:30 PM57 °FScattered clouds.3 mph82%30.30 "Hg3 mi
12:00 PM59 °FScattered clouds.3 mph82%30.33 "Hg3 mi
11:55 AM57 °FScattered clouds.3 mph88%30.33 "Hg3 mi
11:30 AM55 °FFog.2 mph94%30.33 "Hg2 mi
11:01 AM55 °FFog.No wind94%30.36 "Hg1 mi
10:30 AM54 °FFog.No wind94%30.33 "Hg1 mi
10:00 AM52 °FFog.5 mph94%30.33 "Hg0 mi
9:30 AM50 °FFog.3 mph94%30.33 "Hg0 mi
9:00 AM50 °FFog.5 mph94%30.33 "Hg0 mi
8:30 AM50 °FFog.5 mph94%30.33 "Hg0 mi
8:00 AM50 °FFog.5 mph94%30.33 "Hg0 mi
7:30 AM50 °FFog.5 mph94%30.33 "Hg0 mi
7:00 AM50 °FFog.5 mph94%30.30 "Hg0 mi
6:30 AM50 °FFog.3 mph94%30.30 "Hg0 mi
6:00 AM50 °FFog.5 mph94%30.30 "Hg0 mi
5:30 AM50 °FFog.5 mph94%30.30 "Hg0 mi
5:00 AM50 °FFog.6 mph94%30.30 "Hg0 mi
Weather by CustomWeather, © 2014

See weather overviewHow to use our weather pages